Delta Virtual Airport Information Service

Athens Eleftherios Venizelos

ICAO: LGAV Country: Greece
Latitude: 37.9364 Longitude: 23.9445
Latest Arrival : DLH1756 (EDDM-LGAV) Latest Departure : DAC2768 (LGAV-LTFM)


WX CaptureLIVE
Data provided by noaa.gov | Fetched at 18:02:27

METAR : LGAV 172150Z VRB01KT CAVOK 23/16 Q1011 NOSIG

TAF : LGAV 172150Z VRB01KT CAVOK 23/16 Q1011 NOSIG


Runway Data for LGAV
Data provided by openaviationdata.com

Runway ID Mag Var Hdg Length Elevation Surface ILS Freq ILS Id ILS Slope
03L 2 33° 12461 ft 308 ft Asphalt 110.5 IATL 3
03R 2 33° 13141 ft 308 ft Asphalt 111.1 IATR 3
21L 2 213° 13141 ft 308 ft Asphalt 111.1 IEVL 3
21R 2 213° 12461 ft 308 ft Asphalt 110.5 IEVR 3

Athens Eleftherios Venizelos, Greece
Use only for reference purposes



Not for navigational purposes.